Temp
-8 -9 -9 -9 -10 -10 -10 -10 -10 -10 -11 -11 -11 -11 -11 -11 -12 -12 -12 -12 -12 -12 -12 -12 -11 -11 -10 -10 -9 -9 -8 -7 -7 -6 -6 -5 -5 -4 -3 -3 -3 -2 -2 -1 -1 -1 -1 -0 -0 -0 -1 -1 -1 -1 -1 -1 -1 -1 -0 -0 -0 -0 -0
-8 -9 -9 -10 -10 -10 -10 -11 -11 -11 -11 -11 -11 -11 -11 -11 -12 -12 -12 -12 -13 -13 -12 -12 -12 -11 -10 -10 -10 -9 -9 -9 -8 -7 -7 -6 -6 -5 -4 -3 -3 -3 -2 -2 -2 -1 -1 -1 -1 -1 -1 -1 -1 -1 -1 -1 -1 -1 -1 -1 -1 -1 -1
-8 -9 -10 -10 -10 -11 -11 -11 -11 -11 -11 -11 -12 -11 -11 -12 -12 -12 -12 -13 -13 -13 -13 -12 -12 -11 -10 -10 -10 -10 -10 -9 -9 -9 -8 -8 -7 -7 -6 -4 -4 -3 -3 -2 -2 -2 -2 -1 -1 -1 -1 -1 -1 -1 -2 -2 -2 -2 -2 -2 -2 -2 -2
-9 -9 -10 -10 -11 -11 -11 -12 -12 -12 -12 -12 -12 -12 -12 -12 -12 -12 -13 -13 -13 -13 -13 -12 -12 -11 -11 -11 -10 -10 -10 -10 -10 -10 -9 -9 -9 -8 -8 -7 -6 -4 -4 -3 -3 -3 -2 -2 -2 -2 -2 -2 -2 -2 -2 -2 -2 -2 -3 -2 -2 -2 -2
-9 -10 -10 -11 -11 -11 -12 -12 -12 -12 -12 -12 -12 -12 -12 -12 -12 -12 -13 -13 -13 -13 -12 -12 -12 -11 -11 -11 -11 -11 -11 -11 -11 -10 -10 -10 -10 -9 -9 -8 -7 -6 -5 -4 -4 -4 -3 -3 -3 -3 -3 -3 -3 -3 -3 -3 -3 -3 -3 -3 -3 -3 -3
-10 -11 -11 -11 -12 -12 -12 -13 -13 -13 -13 -13 -13 -13 -13 -13 -13 -13 -13 -13 -13 -13 -12 -13 -12 -12 -12 -12 -12 -12 -12 -12 -11 -11 -11 -10 -10 -10 -9 -9 -8 -8 -7 -6 -5 -4 -4 -4 -4 -4 -4 -4 -4 -4 -4 -4 -4 -4 -4 -4 -4 -4 -4
-11 -12 -12 -12 -12 -13 -13 -13 -13 -13 -13 -13 -13 -13 -13 -14 -14 -14 -14 -13 -13 -13 -13 -13 -12 -12 -12 -12 -13 -13 -13 -12 -12 -12 -11 -11 -11 -10 -10 -9 -9 -9 -8 -7 -6 -5 -5 -5 -5 -5 -5 -5 -5 -4 -4 -4 -4 -5 -5 -5 -5 -5 -5
-12 -12 -13 -13 -13 -13 -13 -13 -13 -14 -14 -14 -14 -14 -14 -14 -14 -14 -14 -13 -13 -13 -13 -13 -13 -13 -13 -13 -13 -13 -13 -13 -12 -12 -12 -12 -12 -11 -11 -10 -10 -9 -9 -9 -8 -7 -7 -7 -7 -7 -7 -6 -6 -6 -6 -6 -6 -6 -6 -6 -6 -6 -5
-13 -13 -13 -14 -14 -14 -14 -14 -14 -14 -14 -14 -14 -15 -15 -15 -15 -14 -14 -14 -14 -13 -13 -13 -13 -13 -13 -13 -13 -14 -14 -14 -13 -13 -13 -13 -13 -12 -11 -11 -11 -10 -10 -10 -10 -10 -9 -9 -9 -10 -9 -9 -9 -9 -9 -9 -8 -7 -7 -7 -7 -7 -7
-14 -14 -14 -14 -14 -14 -14 -15 -15 -15 -15 -15 -15 -15 -15 -15 -15 -14 -14 -14 -14 -13 -13 -14 -14 -14 -14 -14 -14 -14 -14 -14 -14 -14 -14 -14 -13 -13 -13 -12 -12 -11 -11 -12 -12 -12 -12 -12 -12 -12 -12 -12 -12 -11 -11 -10 -9 -9 -8 -8 -7 -7 -8
-14 -14 -15 -15 -15 -15 -15 -15 -15 -15 -16 -16 -15 -15 -15 -14 -14 -14 -14 -14 -14 -14 -14 -14 -15 -14 -14 -14 -14 -14 -15 -15 -14 -14 -14 -14 -14 -14 -14 -14 -13 -13 -13 -13 -13 -13 -13 -13 -13 -13 -14 -14 -13 -12 -12 -12 -11 -11 -10 -10 -9 -9 -9
-15 -15 -15 -15 -16 -16 -16 -16 -16 -16 -16 -16 -15 -15 -15 -14 -14 -14 -14 -14 -14 -14 -15 -15 -15 -15 -15 -15 -15 -15 -15 -15 -15 -15 -15 -15 -15 -15 -15 -15 -15 -15 -14 -14 -14 -14 -15 -15 -14 -15 -15 -15 -14 -14 -13 -13 -13 -12 -12 -12 -12 -12 -12
-16 -16 -16 -16 -16 -16 -16 -16 -16 -16 -17 -16 -15 -15 -15 -14 -14 -14 -14 -15 -15 -15 -15 -15 -15 -15 -15 -15 -16 -16 -16 -16 -16 -16 -16 -16 -16 -16 -15 -16 -16 -16 -15 -15 -15 -15 -15 -15 -15 -16 -16 -16 -15 -15 -14 -14 -14 -14 -13 -13 -13 -13 -14
-16 -17 -17 -17 -17 -17 -17 -17 -16 -17 -17 -16 -16 -15 -15 -15 -15 -15 -15 -15 -15 -15 -15 -16 -16 -16 -16 -16 -16 -16 -16 -16 -16 -16 -16 -16 -16 -16 -16 -16 -16 -16 -16 -16 -16 -16 -17 -17 -17 -17 -17 -16 -16 -15 -15 -14 -15 -15 -14 -14 -14 -14 -15
-17 -17 -17 -17 -17 -17 -18 -17 -17 -18 -17 -16 -16 -15 -15 -15 -15 -15 -15 -15 -16 -16 -16 -16 -16 -16 -16 -16 -16 -17 -17 -17 -17 -16 -17 -17 -17 -17 -17 -17 -17 -17 -17 -17 -17 -17 -17 -17 -18 -18 -18 -17 -16 -16 -15 -15 -15 -15 -15 -15 -14 -15 -15
-17 -18 -18 -18 -18 -18 -18 -18 -18 -18 -17 -16 -16 -15 -15 -16 -16 -16 -16 -16 -16 -17 -17 -17 -17 -17 -17 -16 -17 -17 -17 -17 -17 -17 -17 -17 -18 -18 -18 -18 -18 -18 -18 -18 -18 -18 -18 -19 -19 -19 -19 -18 -17 -16 -16 -16 -16 -16 -15 -15 -15 -15 -15
-18 -18 -18 -19 -19 -19 -19 -19 -18 -18 -18 -17 -16 -16 -16 -16 -16 -16 -17 -17 -17 -17 -17 -17 -17 -17 -17 -17 -16 -17 -17 -17 -17 -17 -17 -18 -19 -19 -19 -19 -19 -19 -19 -19 -19 -19 -20 -19 -19 -20 -20 -19 -17 -17 -16 -16 -16 -16 -16 -16 -17 -17 -18
-19 -19 -19 -20 -20 -20 -20 -19 -19 -19 -18 -17 -16 -16 -16 -16 -17 -17 -17 -18 -18 -18 -18 -18 -18 -17 -17 -17 -16 -17 -18 -18 -17 -18 -18 -19 -20 -20 -20 -20 -20 -20 -20 -20 -20 -20 -20 -20 -20 -20 -20 -19 -18 -18 -17 -17 -17 -18 -18 -18 -18 -19 -20
-20 -20 -19 -20 -20 -20 -20 -19 -19 -19 -18 -17 -17 -16 -16 -17 -17 -18 -18 -19 -19 -18 -18 -18 -18 -18 -17 -17 -17 -17 -18 -18 -18 -19 -19 -20 -21 -21 -22 -22 -22 -21 -21 -21 -21 -21 -21 -21 -21 -21 -21 -20 -20 -20 -19 -19 -19 -20 -20 -19 -19 -20 -19
-20 -20 -20 -20 -20 -20 -19 -19 -19 -19 -18 -17 -16 -16 -17 -17 -18 -18 -19 -19 -19 -19 -19 -18 -18 -18 -18 -17 -17 -18 -19 -19 -19 -20 -20 -21 -22 -22 -23 -24 -23 -23 -23 -22 -22 -23 -23 -23 -23 -23 -22 -22 -22 -22 -21 -21 -21 -21 -21 -21 -21 -21 -21
-21 -21 -20 -20 -20 -19 -19 -19 -19 -19 -18 -17 -17 -17 -17 -18 -19 -19 -19 -19 -19 -19 -19 -19 -19 -19 -18 -17 -17 -17 -19 -20 -21 -21 -21 -22 -23 -23 -24 -24 -24 -24 -24 -24 -24 -24 -24 -24 -24 -24 -24 -23 -23 -23 -24 -23 -23 -23 -22 -22 -22 -22 -23
-21 -20 -20 -20 -19 -19 -19 -19 -19 -19 -18 -17 -17 -18 -18 -19 -19 -19 -19 -19 -19 -19 -19 -19 -19 -19 -18 -18 -17 -18 -19 -20 -21 -22 -22 -23 -23 -24 -24 -24 -24 -25 -25 -25 -25 -25 -25 -25 -25 -25 -25 -25 -25 -25 -25 -25 -24 -24 -23 -23 -23 -23 -24
-21 -20 -20 -20 -20 -20 -20 -20 -19 -19 -18 -18 -18 -19 -19 -19 -19 -20 -20 -20 -20 -20 -20 -20 -19 -19 -18 -18 -19 -20 -21 -21 -22 -23 -23 -24 -24 -24 -25 -25 -25 -25 -25 -25 -26 -26 -27 -27 -27 -27 -27 -26 -26 -26 -26 -25 -25 -25 -25 -24 -24 -24 -25
-21 -20 -20 -20 -20 -20 -20 -20 -19 -19 -19 -19 -18 -19 -19 -20 -20 -20 -20 -20 -20 -21 -21 -20 -20 -20 -20 -20 -21 -21 -22 -22 -23 -24 -24 -24 -25 -25 -25 -25 -25 -26 -26 -26 -27 -28 -29 -29 -29 -29 -28 -28 -28 -27 -27 -26 -26 -26 -26 -26 -26 -26 -26
-21 -20 -20 -20 -20 -20 -20 -20 -20 -20 -20 -19 -19 -20 -20 -21 -21 -21 -21 -21 -21 -22 -22 -22 -21 -21 -21 -22 -22 -22 -22 -23 -24 -25 -25 -25 -26 -26 -26 -26 -26 -26 -26 -27 -29 -30 -30 -30 -30 -30 -29 -29 -28 -28 -28 -27 -27 -26 -27 -27 -27 -27 -27
-21 -20 -20 -20 -20 -20 -20 -20 -20 -20 -20 -20 -20 -21 -21 -21 -22 -22 -22 -22 -22 -23 -23 -22 -22 -22 -22 -22 -22 -23 -23 -24 -25 -26 -26 -27 -27 -27 -27 -27 -27 -27 -27 -29 -30 -30 -30 -30 -30 -30 -30 -29 -28 -28 -27 -27 -27 -27 -27 -27 -27 -27 -27
-21 -21 -21 -20 -20 -20 -20 -20 -20 -21 -21 -21 -21 -21 -21 -22 -22 -23 -23 -23 -23 -23 -23 -23 -23 -23 -23 -23 -23 -24 -24 -25 -26 -27 -27 -28 -28 -28 -28 -28 -28 -28 -29 -30 -30 -30 -30 -30 -30 -30 -29 -29 -28 -28 -28 -28 -28 -27 -27 -27 -26 -26 -27
-21 -21 -21 -21 -21 -21 -21 -21 -21 -21 -21 -21 -21 -22 -22 -22 -23 -23 -24 -24 -24 -24 -24 -24 -24 -24 -24 -24 -24 -25 -26 -27 -27 -28 -28 -29 -29 -29 -29 -29 -29 -29 -30 -30 -30 -30 -30 -30 -30 -30 -30 -29 -29 -29 -29 -29 -28 -28 -28 -28 -27 -27 -27
-21 -20 -20 -21 -21 -21 -21 -21 -21 -21 -21 -22 -22 -22 -22 -22 -23 -24 -24 -25 -25 -25 -25 -25 -25 -25 -25 -25 -26 -26 -27 -28 -28 -29 -29 -29 -29 -29 -29 -29 -29 -30 -30 -30 -30 -30 -30 -30 -30 -30 -30 -30 -30 -30 -29 -29 -29 -28 -28 -28 -28 -28 -29
-20 -20 -20 -21 -21 -21 -21 -21 -21 -21 -21 -22 -22 -22 -22 -22 -23 -24 -24 -25 -25 -26 -26 -26 -26 -26 -26 -27 -27 -27 -28 -28 -29 -29 -29 -30 -30 -30 -29 -30 -30 -30 -30 -30 -30 -30 -30 -30 -30 -30 -30 -30 -30 -30 -30 -30 -29 -29 -29 -29 -29 -29 -30
-20 -20 -20 -21 -21 -21 -21 -22 -21 -21 -21 -20 -21 -22 -23 -23 -23 -24 -24 -25 -25 -26 -26 -26 -27 -27 -27 -28 -28 -28 -28 -29 -29 -29 -29 -30 -30 -30 -30 -30 -30 -30 -30 -30 -30 -30 -30 -30 -30 -30 -30 -30 -30 -30 -30 -30 -30 -30 -29 -29 -30 -30 -30
-20 -20 -21 -21 -21 -21 -21 -21 -21 -21 -20 -19 -20 -21 -22 -23 -24 -24 -25 -25 -25 -26 -26 -27 -27 -27 -28 -28 -28 -28 -29 -29 -29 -29 -29 -29 -29 -30 -30 -30 -30 -30 -30 -30 -30 -30 -30 -30 -30 -30 -30 -30 -30 -30 -30 -30 -30 -30 -30 -30 -30 -30 -31
-21 -21 -21 -21 -21 -21 -21 -22 -22 -21 -21 -20 -21 -21 -22 -23 -24 -25 -25 -25 -25 -26 -26 -27 -27 -27 -28 -28 -28 -29 -29 -29 -29 -29 -29 -29 -29 -30 -30 -30 -30 -30 -30 -30 -30 -30 -30 -30 -30 -30 -30 -30 -30 -30 -30 -30 -30 -30 -30 -30 -30 -30 -31
-21 -22 -22 -22 -22 -22 -22 -22 -22 -22 -21 -22 -22 -22 -23 -23 -24 -25 -25 -25 -25 -26 -26 -27 -27 -28 -28 -28 -29 -29 -29 -29 -29 -29 -29 -29 -29 -30 -30 -30 -30 -30 -30 -30 -30 -30 -30 -30 -30 -30 -30 -30 -30 -30 -30 -30 -30 -31 -31 -31 -31 -31 -31
-22 -22 -22 -22 -22 -23 -22 -22 -22 -22 -22 -22 -23 -23 -24 -24 -24 -25 -25 -25 -26 -26 -26 -26 -27 -27 -28 -28 -29 -29 -29 -29 -29 -29 -29 -29 -29 -30 -30 -30 -30 -30 -30 -30 -30 -30 -30 -30 -30 -30 -30 -30 -30 -30 -30 -30 -30 -31 -31 -31 -32 -32 -31
-23 -23 -23 -23 -23 -23 -24 -23 -23 -23 -23 -23 -23 -24 -24 -24 -24 -25 -25 -25 -26 -26 -27 -27 -27 -27 -28 -28 -29 -29 -29 -29 -29 -29 -29 -29 -29 -29 -30 -30 -29 -29 -30 -30 -30 -29 -30 -30 -30 -30 -30 -29 -29 -30 -30 -30 -31 -31 -31 -32 -32 -32 -32
Height
808 807 807 807 807 806 806 805 805 804 803 801 800 799 798 797 795 794 793 791 790 789 787 786 785 783 781 780 778 776 775 773 771 769 768 767 765 764 763 763 762 760 756 755 758 759 759 760 760 760 760 760 760 761 762 763 763 764 764 765 766 767 769
805 805 804 804 804 804 803 803 802 802 801 800 799 798 796 795 794 792 791 789 788 787 786 785 783 782 780 779 777 775 773 771 769 768 766 765 764 762 761 760 760 758 755 753 755 756 757 758 758 758 759 759 759 760 761 761 761 761 762 762 763 764 766
802 801 802 801 801 801 801 801 800 799 799 798 797 796 794 793 792 790 789 787 786 785 784 783 781 780 778 777 776 774 772 770 769 767 765 764 762 761 759 758 757 756 754 751 752 754 755 755 756 757 757 757 758 758 758 759 759 759 760 760 761 763 765
799 798 798 798 799 798 798 798 798 797 797 796 795 794 792 791 790 788 787 786 785 784 783 781 780 778 777 776 774 772 771 770 768 766 765 763 762 760 758 757 756 754 753 750 750 751 752 753 754 754 755 755 755 756 757 757 758 758 759 759 760 761 764
796 796 796 796 796 796 796 796 795 795 794 794 793 792 790 789 788 786 785 784 783 782 781 780 778 777 776 774 773 772 770 769 767 766 765 763 761 760 758 757 755 753 751 750 749 749 750 751 752 752 753 753 754 754 755 756 757 758 759 759 760 761 763
794 794 794 794 794 793 793 793 792 792 792 791 791 790 788 787 785 784 783 782 781 780 779 778 777 776 774 773 772 771 770 768 767 766 764 763 761 760 758 756 755 753 751 749 747 747 748 749 750 750 751 752 752 753 754 755 756 757 758 759 759 760 762
792 793 792 792 792 791 791 791 790 790 789 788 788 787 786 785 783 782 781 780 779 778 777 776 775 774 773 772 771 770 769 768 767 765 764 763 762 760 758 756 755 753 751 749 747 746 746 747 748 749 749 750 751 752 753 754 754 755 756 757 758 759 761
792 792 792 791 790 789 789 788 788 787 786 786 785 784 783 782 781 780 779 778 777 776 775 775 774 773 772 772 771 770 769 767 766 765 764 763 762 760 759 757 755 753 752 750 748 746 746 746 746 747 748 749 750 751 752 752 753 754 755 756 757 758 760
791 791 790 789 788 788 787 786 785 785 784 783 782 782 781 780 779 778 777 776 775 774 774 773 773 772 771 771 770 769 769 767 766 765 764 763 762 761 760 758 756 754 753 751 750 748 747 746 747 748 748 749 750 751 751 752 752 753 754 755 756 757 758
790 790 788 787 786 785 785 784 783 782 782 781 780 779 778 778 777 776 775 775 774 773 772 771 771 771 771 770 770 769 768 767 766 766 765 763 762 761 760 759 757 756 754 753 752 751 750 749 749 750 750 751 751 751 751 752 752 752 753 754 755 755 756
788 787 786 785 784 783 782 781 780 780 779 779 778 778 777 775 774 774 773 772 772 771 771 770 770 770 770 770 769 768 767 767 766 766 765 764 763 762 761 760 759 758 756 755 754 753 753 752 753 753 752 752 752 752 752 752 752 752 753 753 754 755 756
786 785 784 783 782 780 779 778 778 778 777 776 776 775 774 773 772 771 770 770 770 770 769 769 769 769 769 769 768 767 766 766 766 765 765 764 763 762 762 761 760 759 758 757 756 755 755 754 754 754 754 753 753 753 753 753 753 753 754 754 755 756 757
784 783 782 781 779 778 777 776 776 775 774 774 773 773 772 770 769 768 768 768 768 768 768 769 768 768 768 768 767 766 766 766 765 765 764 764 763 763 762 762 761 760 760 759 757 757 756 756 755 755 755 755 754 755 754 754 754 754 755 755 756 757 758
781 780 779 778 777 776 774 774 773 773 772 772 771 770 769 768 767 767 766 767 767 767 768 768 767 767 767 767 766 765 765 765 765 764 764 764 764 763 763 762 761 761 761 760 759 758 758 757 757 756 756 755 755 755 755 755 755 755 756 756 757 758 758
779 778 777 776 775 773 772 771 771 770 770 770 769 768 767 766 766 766 766 766 766 766 767 767 767 767 766 766 765 764 764 764 764 764 764 764 763 763 763 762 762 762 762 761 760 759 759 759 758 757 757 756 755 755 755 755 755 755 756 756 757 758 757
777 776 775 774 773 771 770 769 769 769 768 768 767 766 766 765 765 765 765 765 765 766 766 766 766 766 766 765 764 764 764 763 763 763 763 763 763 763 763 763 762 762 762 762 761 760 759 759 759 758 757 756 755 755 755 755 755 755 756 756 757 757 757
775 774 773 772 771 769 768 767 767 767 767 766 766 765 764 764 764 764 764 764 765 765 765 765 765 765 765 765 764 763 763 763 762 762 762 762 762 762 762 762 762 761 760 760 760 759 758 758 758 757 756 756 756 756 756 755 755 756 756 756 757 758 758
773 772 771 770 769 768 766 765 765 766 765 765 764 763 763 763 763 763 763 764 764 764 765 765 765 765 765 764 764 763 762 762 762 762 761 761 761 761 761 761 761 760 760 759 759 758 758 758 757 757 756 756 756 756 755 755 756 756 756 756 757 758 758
771 769 769 768 767 766 765 764 764 764 764 763 762 762 761 761 762 762 763 764 764 764 765 765 765 765 765 764 764 763 762 762 762 761 761 761 761 761 761 761 760 760 759 759 759 758 758 758 758 757 757 757 756 756 756 756 756 756 756 757 757 758 758
769 768 767 766 765 765 764 764 763 763 763 762 760 760 760 761 761 762 763 764 764 764 765 765 765 765 764 764 764 763 762 761 761 761 761 761 760 760 761 761 760 760 760 759 759 759 759 759 758 758 758 757 757 757 756 756 756 756 757 757 757 758 758
768 767 766 765 764 764 764 763 763 763 762 761 759 759 760 761 762 763 763 764 764 764 764 764 764 764 764 764 764 763 762 762 761 761 761 761 761 761 761 761 761 761 760 760 760 759 759 759 759 759 758 758 758 757 757 757 757 757 758 758 758 758 758
767 766 765 764 764 763 763 764 763 763 763 761 760 760 761 762 762 763 764 764 764 764 764 764 764 764 763 763 763 763 763 762 761 761 762 763 763 762 762 762 762 761 761 761 761 760 760 760 760 760 759 759 759 758 758 758 758 758 758 758 759 759 759
766 765 764 764 764 763 764 764 763 763 763 762 762 762 762 762 763 763 764 764 764 764 764 764 764 764 764 764 763 763 763 762 762 763 763 764 763 762 762 762 762 762 762 762 761 761 761 761 761 761 761 760 760 760 760 759 759 759 759 760 760 760 760
765 765 764 764 764 764 764 764 764 764 764 763 763 763 763 763 763 763 763 764 764 764 764 764 764 763 763 763 762 762 762 762 763 763 764 763 763 763 763 763 763 763 763 762 762 762 762 763 763 762 762 762 762 762 762 761 761 761 761 761 761 761 761
765 765 764 764 764 764 764 764 764 764 764 764 764 764 764 763 763 763 763 763 763 763 763 763 763 762 762 762 762 762 762 762 763 763 763 763 763 763 764 764 763 764 763 763 763 764 764 765 765 764 764 764 764 764 763 763 762 762 762 762 762 762 762
765 765 764 764 764 764 764 764 764 764 764 764 764 764 764 763 763 763 762 762 762 762 762 762 762 762 762 762 762 763 763 763 763 763 764 764 764 764 764 764 764 764 764 764 765 765 765 766 766 766 766 766 765 764 764 764 763 763 763 763 763 763 762
765 765 764 764 764 764 764 764 764 764 764 763 763 763 763 763 763 762 762 762 762 762 762 762 763 763 762 763 763 763 763 763 764 764 764 765 765 765 765 765 765 765 765 765 766 766 766 767 767 767 766 766 765 765 764 764 764 763 763 763 763 763 762
764 764 764 764 764 764 764 764 763 763 763 763 763 763 763 763 762 762 762 762 762 763 763 763 763 763 763 763 763 763 764 764 764 765 765 765 766 766 766 766 766 766 766 766 767 767 767 767 767 767 766 766 765 765 764 764 764 763 763 763 763 762 762
763 763 763 763 763 763 763 763 762 762 762 762 762 762 762 762 762 762 762 762 762 763 763 763 763 763 763 763 763 764 764 764 765 765 765 766 766 766 767 767 767 767 767 767 767 767 767 767 767 767 767 766 765 765 765 765 764 764 763 763 763 762 762
762 762 762 762 763 763 762 762 761 761 761 761 761 761 762 762 762 762 762 762 762 763 763 763 763 763 764 764 764 764 765 765 765 766 766 766 767 767 767 767 767 767 767 768 768 768 768 768 767 767 767 767 766 766 766 765 765 764 764 764 763 763 763
760 760 761 762 762 762 762 761 760 760 759 758 759 760 761 761 762 762 762 762 763 763 763 763 764 764 764 765 765 765 765 765 766 766 766 767 767 767 768 768 767 768 768 768 768 768 768 768 768 767 767 767 767 767 766 766 765 765 764 764 764 763 763
761 760 761 762 762 762 761 761 760 760 758 757 758 760 761 761 762 762 762 763 763 763 763 764 764 764 765 765 765 766 766 766 766 767 767 767 767 768 768 768 768 768 768 768 768 768 768 768 768 768 768 767 767 767 766 766 765 765 764 764 764 763 763
761 761 761 761 762 761 762 761 761 760 760 760 760 761 761 762 762 762 762 762 763 763 763 763 764 764 765 765 766 766 766 767 767 767 767 768 768 768 768 768 769 769 769 769 769 769 768 768 768 768 768 767 767 767 766 766 765 765 764 764 763 763 762
761 760 760 761 761 761 761 761 761 761 761 761 761 761 761 762 762 762 762 762 762 762 762 763 764 764 765 765 766 766 766 767 767 767 768 768 768 768 768 768 768 769 769 769 769 769 768 768 768 767 767 767 767 766 766 765 765 764 764 763 762 762 761
760 759 759 759 759 760 760 760 760 760 760 761 761 761 761 761 761 761 762 762 762 762 762 762 763 764 764 765 765 766 766 766 767 767 767 767 768 768 768 768 768 768 769 769 768 768 768 768 767 767 766 766 766 765 765 764 764 764 763 763 762 761 760
758 758 758 758 758 758 758 758 758 758 759 759 760 760 759 759 760 760 761 761 761 761 762 762 763 763 764 764 765 765 766 766 766 767 767 767 767 767 768 768 768 768 768 768 768 768 767 767 767 766 766 765 765 765 764 764 764 763 763 762 762 761 760
Wind_Speed
19 17 16 15 14 14 14 15 15 16 18 20 21 22 23 24 24 24 23 21 21 19 16 16 17 18 17 17 19 20 18 18 18 17 17 17 20 22 22 22 20 13 11 14 15 15 14 12 12 13 13 13 13 13 15 15 15 15 15 16 17 17 17
20 18 17 16 14 14 14 14 15 16 17 19 21 23 23 24 24 24 23 21 20 19 16 16 18 17 16 18 19 18 16 17 16 15 15 14 15 18 20 22 21 17 13 13 14 15 15 15 15 14 13 13 13 13 13 14 15 15 15 15 15 15 15
20 18 17 16 15 14 13 13 14 15 17 18 20 22 23 24 24 24 23 21 19 19 17 18 19 16 15 16 16 14 13 13 14 13 12 12 12 13 15 18 20 20 16 14 13 13 14 15 16 16 16 15 15 14 12 10 10 11 12 12 11 11 11
20 19 18 17 15 14 13 13 14 15 16 18 20 21 22 23 23 24 23 20 18 18 18 19 19 16 14 13 11 11 12 12 13 13 13 13 12 13 13 13 15 18 19 17 13 10 13 14 14 14 14 13 13 13 11 9 8 7 7 7 7 7 6
20 19 18 16 14 13 13 14 15 15 17 17 19 21 22 23 23 23 22 19 16 17 19 20 17 14 11 11 10 11 12 12 13 13 14 15 14 14 13 13 12 13 17 18 16 12 11 12 12 12 11 11 11 12 11 10 9 7 7 6 6 6 5
19 18 16 14 13 13 14 15 16 17 18 18 19 20 22 23 23 22 20 18 16 17 19 18 14 12 10 9 9 10 11 11 12 12 13 14 14 14 14 13 12 11 11 13 16 15 12 10 10 11 10 9 10 11 10 9 8 6 5 5 4 4 4
17 15 13 12 12 13 14 16 18 19 19 20 20 21 22 21 20 19 18 17 17 17 17 14 13 11 9 6 6 8 9 10 11 10 11 12 13 13 13 13 12 11 10 8 8 9 9 9 9 10 9 7 8 9 8 7 7 6 4 4 3 4 4
12 11 10 11 12 14 16 18 19 20 21 21 21 21 20 18 18 18 18 18 18 16 13 12 11 8 5 3 4 6 7 9 9 9 9 10 11 12 12 12 11 10 10 9 5 1 4 7 7 7 7 6 7 7 4 2 4 5 4 4 4 3 3
9 10 12 13 15 16 17 19 20 21 21 22 22 20 19 18 18 19 20 20 18 14 12 12 10 7 4 3 2 4 5 6 7 7 8 10 11 11 10 10 10 9 9 10 10 8 6 6 8 8 7 7 6 5 4 3 4 4 5 6 6 4 3
12 13 15 16 17 18 19 20 20 21 21 20 19 19 19 20 20 20 20 20 16 13 11 9 8 5 3 2 2 3 4 5 5 5 6 8 10 11 10 8 8 8 8 9 10 10 9 8 9 10 10 10 9 8 6 6 6 6 6 6 6 4 4
16 16 17 17 18 19 20 20 20 20 19 17 17 18 19 20 20 21 21 18 14 11 10 7 4 3 2 3 4 4 4 4 4 4 3 4 6 9 10 9 8 7 7 8 8 10 10 9 9 10 10 10 9 9 9 9 9 8 8 7 5 2 3
18 18 18 18 19 20 20 20 20 19 17 17 17 18 18 20 21 21 18 15 11 9 8 7 4 4 3 4 5 5 5 4 4 3 3 3 3 5 8 10 9 7 7 7 8 10 11 9 7 9 10 9 8 9 8 9 9 9 9 9 7 5 5
18 18 17 18 19 20 20 19 20 19 17 17 17 17 18 20 19 16 13 11 9 8 7 6 5 5 4 4 4 4 4 3 2 3 3 4 3 3 5 7 8 7 7 7 8 10 11 8 6 7 9 7 6 5 5 7 8 8 8 8 8 8 7
18 17 17 17 18 19 20 20 19 18 17 17 16 16 17 17 13 11 9 8 7 6 7 7 6 6 4 4 4 3 2 2 1 2 3 5 5 3 3 6 9 9 6 7 10 12 12 8 5 5 6 5 4 4 4 5 5 5 6 5 6 6 5
17 18 18 18 18 19 21 20 18 16 16 16 15 15 15 12 9 8 7 7 6 6 6 6 6 5 4 3 2 2 4 4 2 1 5 6 5 3 1 4 11 11 6 5 10 13 14 13 9 8 7 5 3 2 3 3 2 2 3 2 3 3 4
18 18 18 18 18 19 20 19 16 14 14 14 14 15 13 10 9 8 7 7 7 6 6 6 6 5 4 2 0 4 8 5 1 3 6 7 5 2 1 4 11 14 11 10 12 13 15 15 14 13 11 5 1 2 2 3 3 4 5 5 4 3 2
18 18 18 18 17 17 19 18 14 12 13 13 14 14 12 9 9 9 8 7 6 5 5 6 4 3 3 1 1 6 9 4 2 5 6 5 4 2 3 5 9 12 12 12 11 10 9 8 7 7 6 4 2 3 4 5 5 5 5 3 2 1 2
18 17 17 17 17 16 17 16 13 11 13 13 14 13 9 8 9 9 8 6 6 5 5 4 2 2 2 1 1 6 7 1 5 6 5 3 3 2 3 4 6 7 7 6 6 5 4 4 1 1 2 3 2 2 2 3 4 2 1 1 2 3 4
17 17 17 15 14 13 13 14 12 11 12 14 14 12 9 9 10 9 8 6 5 4 2 2 1 1 1 2 1 5 5 3 6 4 4 3 3 2 3 2 3 5 5 4 4 3 2 1 1 2 2 3 3 3 3 4 4 3 3 3 4 4 3
15 16 15 12 10 10 9 10 9 9 12 14 11 10 9 9 9 8 6 4 2 1 1 2 3 2 2 3 1 6 7 3 2 2 4 3 1 3 4 4 4 5 4 5 6 6 6 6 7 7 7 8 8 8 8 8 7 7 6 6 7 6 5
13 12 11 9 8 7 5 4 5 6 9 7 2 6 5 7 7 5 4 3 2 2 3 3 3 2 2 3 1 4 9 10 8 7 9 8 6 6 5 4 6 8 8 9 10 10 10 11 11 11 11 11 11 11 11 10 9 9 8 8 8 8 8
11 10 9 7 6 4 3 2 3 5 7 5 7 6 3 5 6 5 4 4 4 4 3 3 1 1 3 4 3 5 9 12 12 12 13 12 9 6 5 5 7 8 9 10 12 12 13 13 13 13 14 13 13 12 11 10 10 9 9 9 8 8 8
10 8 7 5 3 3 4 3 2 3 5 7 8 8 6 6 5 5 5 5 5 2 1 1 3 4 4 6 9 12 12 11 10 11 11 8 5 5 5 7 8 9 9 11 13 14 15 15 15 15 15 14 13 12 11 10 9 9 8 8 8 7 6
9 7 6 4 4 4 4 2 2 2 3 4 7 8 8 7 4 7 7 5 2 2 4 6 9 10 11 12 12 11 8 6 6 7 6 4 4 5 7 7 8 9 11 13 14 16 17 16 15 15 15 13 12 11 10 10 9 8 8 8 8 6 5
8 6 4 5 5 4 3 3 3 3 3 2 2 4 5 4 6 6 4 2 5 8 8 9 12 13 12 10 6 2 2 3 3 3 4 4 6 7 8 8 9 11 12 14 16 16 16 14 13 13 12 11 10 9 9 10 10 9 9 9 8 7 6
7 5 4 5 6 5 4 3 3 4 4 4 3 2 2 5 6 3 3 6 9 11 11 10 10 9 7 4 2 4 4 2 2 4 5 7 8 9 9 10 10 11 13 16 16 15 14 13 12 11 10 9 9 10 10 11 11 10 10 9 8 8 7
6 5 4 5 5 6 6 5 5 5 5 5 5 4 4 5 5 2 4 7 9 10 9 8 7 6 5 4 4 3 0 2 4 6 7 8 9 10 11 11 11 12 14 15 14 14 13 12 10 10 10 10 10 11 12 11 10 11 11 9 8 8 9
8 7 6 5 6 7 8 8 7 7 7 7 7 5 4 5 4 1 4 6 7 8 7 5 5 5 4 3 2 2 4 5 6 7 9 9 9 10 11 11 11 12 13 13 12 12 12 11 11 11 11 11 12 12 12 11 10 11 12 10 9 9 10
8 8 8 7 7 7 8 9 10 9 8 9 8 7 5 3 2 0 3 5 5 5 5 5 4 4 4 4 5 6 6 7 7 9 9 9 9 9 9 9 10 11 12 11 10 11 11 11 11 12 12 12 13 13 12 11 11 11 11 11 11 12 12
12 11 10 8 7 6 8 10 10 8 9 11 11 8 5 2 2 2 2 4 3 3 4 5 6 6 6 6 6 7 8 8 8 9 9 9 9 9 9 9 10 11 10 9 9 10 10 10 10 11 11 12 12 12 11 11 11 11 10 11 12 13 12
8 8 7 5 3 4 7 6 4 5 8 11 12 12 7 2 1 3 3 2 2 3 5 6 7 7 7 7 8 8 9 9 9 9 9 9 9 8 8 9 10 9 8 8 8 9 9 9 9 10 10 10 11 11 10 10 10 10 11 11 12 12 12
3 3 2 0 2 4 5 3 2 6 8 2 9 13 10 6 4 4 3 2 0 3 5 6 7 9 9 9 9 9 9 9 8 9 9 8 8 8 7 7 8 8 7 6 7 7 7 7 8 8 8 9 9 9 10 10 11 11 12 12 12 12 12
5 6 5 3 2 1 1 1 2 5 7 7 7 8 9 10 9 5 1 2 3 4 7 8 8 9 10 10 10 10 10 9 8 8 8 7 6 6 6 5 5 5 4 4 4 5 5 6 6 6 7 7 8 8 9 10 11 11 12 12 13 13 13
6 5 4 4 3 4 5 6 6 4 2 5 5 5 6 8 8 6 5 5 4 6 7 9 9 10 10 10 9 9 9 9 8 7 7 6 5 5 4 3 3 2 2 2 2 3 4 5 5 5 6 7 7 8 8 9 10 11 12 13 14 15 16
11 10 11 11 11 10 10 11 12 12 9 6 5 5 7 9 8 7 6 5 4 6 7 8 9 10 10 10 9 9 8 7 7 6 5 5 4 3 2 2 1 0 0 1 2 2 3 4 5 5 7 8 8 9 9 10 11 11 12 13 14 15 17
11 11 12 12 12 11 10 10 12 14 13 11 9 9 11 12 11 8 7 5 5 6 7 8 8 9 10 9 9 8 7 7 6 5 5 4 3 2 2 2 2 1 2 2 2 3 4 4 5 6 7 8 8 9 9 10 11 11 12 13 13 14 16
Wind_Direction
278 279 281 285 293 300 308 316 323 330 334 336 339 339 339 338 336 331 328 322 315 317 318 309 308 311 311 315 316 312 310 309 306 302 297 292 280 267 259 256 253 255 269 264 256 257 258 253 247 240 236 239 244 250 252 250 250 249 248 249 249 247 243
273 274 276 281 287 294 302 311 318 326 331 333 335 335 334 334 332 328 324 318 312 313 315 311 308 307 310 314 314 313 315 312 309 307 303 301 294 278 263 255 252 253 261 264 256 251 248 245 242 240 242 244 245 248 250 251 249 245 244 245 247 248 246
269 269 272 276 282 290 299 308 315 322 327 330 331 329 330 330 327 324 319 312 308 309 311 312 308 302 306 311 312 317 324 325 325 325 320 314 314 303 282 265 257 254 257 263 259 247 241 240 239 244 250 251 249 247 244 243 237 231 228 226 228 231 233
263 264 268 272 280 288 298 307 315 320 324 326 326 324 325 325 323 319 313 306 304 305 309 312 306 296 299 307 312 324 337 343 343 343 340 335 332 326 312 295 274 259 257 263 263 245 237 238 239 243 246 242 237 232 225 214 197 182 174 170 171 174 181
260 261 264 270 279 290 301 309 313 317 320 321 321 320 319 319 318 313 306 302 302 301 306 310 300 286 293 308 319 332 342 348 347 347 348 344 343 341 333 324 308 281 265 260 259 252 243 238 235 230 222 212 206 199 195 191 184 173 160 147 136 133 136
257 257 262 271 283 295 304 309 312 314 317 317 316 316 315 313 311 306 300 301 302 301 305 303 288 279 291 308 326 341 346 347 347 347 348 347 347 345 341 337 332 319 292 268 257 250 238 226 217 204 191 192 197 192 186 184 181 174 170 170 158 145 142
252 254 265 279 291 302 308 310 312 313 314 314 314 312 311 309 307 302 298 299 303 306 305 290 272 274 288 306 344 358 350 346 350 352 353 353 350 347 346 345 343 340 332 310 271 236 213 198 189 180 174 175 185 187 186 187 184 171 154 149 146 154 175
252 264 282 295 303 309 310 309 310 311 310 310 310 308 307 307 306 302 299 302 305 302 293 275 264 271 288 310 8 16 352 342 350 357 1 2 356 350 349 349 352 357 355 351 354 50 154 154 146 146 153 151 154 162 154 147 167 153 113 108 120 133 168
282 297 304 308 310 309 307 307 307 307 307 307 307 306 306 306 304 301 299 301 297 281 262 257 260 269 292 306 351 22 3 350 356 7 14 16 9 360 354 354 359 5 7 13 19 24 43 85 84 75 86 91 87 92 77 73 119 112 87 108 126 116 83
309 311 311 309 307 305 304 305 305 304 305 304 301 300 300 300 298 294 293 291 280 263 252 247 246 254 277 299 308 340 349 346 357 15 27 29 26 19 8 2 9 15 22 32 32 25 29 46 47 43 54 58 56 66 72 70 84 85 83 109 128 115 65
313 311 308 306 305 304 303 303 302 303 303 297 293 292 292 291 289 286 283 276 263 258 253 236 223 239 268 303 308 306 308 319 333 346 1 20 36 40 32 22 19 24 36 47 47 43 41 41 35 33 42 47 47 57 62 60 66 69 72 83 93 91 28
309 307 306 305 304 303 302 301 301 302 300 293 291 290 286 285 285 281 271 257 247 246 239 223 226 256 272 289 295 291 290 299 316 322 324 339 6 49 51 44 37 36 46 55 59 55 45 37 36 34 33 38 42 43 48 55 60 62 69 74 65 49 17
306 305 305 304 303 301 300 300 301 302 298 292 289 287 285 285 282 269 249 233 232 237 230 225 240 258 263 264 271 283 282 275 309 340 346 350 353 22 50 56 55 50 56 65 67 63 49 34 40 41 29 29 31 19 26 50 56 59 67 75 64 47 18
305 305 305 304 302 300 298 299 300 300 295 291 288 286 287 285 271 246 229 226 231 234 231 231 242 254 256 253 267 283 249 210 246 352 355 351 353 12 42 68 61 42 43 74 76 73 62 41 30 34 15 358 0 1 18 46 56 56 57 67 62 40 1
305 305 305 303 301 298 296 298 300 298 294 291 287 288 290 281 253 232 229 232 233 235 238 237 239 245 247 253 279 244 210 202 207 344 353 346 338 347 29 85 68 46 31 81 88 84 76 59 44 36 15 339 323 338 349 12 34 34 18 10 15 1 321
304 304 303 301 300 296 295 297 297 296 295 291 287 291 290 268 239 230 230 229 228 231 234 231 232 232 227 248 268 186 189 186 170 336 334 326 311 293 229 135 99 80 72 78 82 85 85 77 68 59 48 26 306 264 287 298 292 294 305 310 317 330 337
303 302 301 300 299 296 296 296 291 290 294 289 286 291 284 252 230 222 216 217 216 216 219 219 227 222 204 276 324 166 167 163 340 325 315 305 286 260 202 172 141 119 107 102 100 105 115 113 96 74 53 23 322 271 269 259 259 278 295 299 294 98 64
303 301 300 299 299 298 296 293 287 286 289 287 287 289 275 239 223 211 202 201 195 197 209 210 213 194 172 340 9 145 146 335 322 316 307 291 268 240 194 188 190 179 166 159 156 159 175 189 215 312 337 344 340 311 280 229 214 235 273 176 140 128 116
304 302 303 302 301 299 293 291 289 285 287 291 290 281 256 223 208 194 183 181 179 186 215 239 284 274 212 312 339 135 129 328 315 317 322 301 263 210 159 145 183 193 200 206 198 191 190 164 82 46 50 53 62 73 83 106 121 116 111 117 110 111 129
307 306 307 307 305 299 291 292 291 287 297 300 284 252 225 204 189 174 162 155 157 195 309 313 317 306 247 268 289 120 112 75 346 6 9 351 263 156 138 124 121 128 135 140 129 115 107 100 90 89 89 84 84 86 86 91 95 93 96 102 98 92 98
312 312 312 310 304 297 284 284 288 298 318 320 220 180 182 174 158 138 131 115 65 16 349 334 318 294 220 224 229 117 106 95 86 69 51 51 78 107 122 132 126 117 115 116 111 105 101 97 92 90 89 86 84 81 79 82 84 83 87 89 89 93 99
314 316 315 310 301 278 230 239 284 310 344 32 105 116 124 149 132 97 78 55 33 17 357 349 312 184 181 182 160 114 98 87 80 76 72 77 91 108 126 135 130 125 120 114 109 102 96 90 86 84 82 80 80 77 74 75 75 76 83 85 86 95 100
316 316 311 298 272 217 204 229 288 318 359 46 82 95 107 121 99 50 28 15 9 1 352 124 137 135 125 117 107 97 89 78 73 78 83 90 106 125 138 138 132 130 123 112 105 98 89 82 79 78 77 75 77 76 74 74 75 78 85 90 93 99 104
319 315 299 264 230 204 204 238 299 324 359 49 74 84 91 90 35 352 343 335 331 146 140 136 131 121 111 106 104 98 84 70 74 83 87 101 121 126 136 139 132 128 121 109 99 91 84 79 77 75 74 73 75 78 78 78 82 91 97 102 104 106 111
322 319 290 245 230 221 219 245 294 324 337 13 60 74 72 36 345 330 315 252 174 152 147 149 146 139 133 130 131 126 351 14 62 86 88 105 118 124 131 131 127 124 115 103 95 89 86 84 81 79 77 79 85 90 89 85 86 96 106 109 105 103 112
318 316 284 253 243 237 242 259 280 304 316 316 312 317 356 353 345 327 218 194 175 166 168 174 173 169 172 190 256 301 317 3 89 102 104 110 117 119 116 115 116 115 108 99 95 91 89 90 89 88 85 86 91 92 87 83 85 92 100 105 103 98 95
295 296 285 273 258 245 254 268 271 277 291 300 299 302 322 340 341 291 215 200 185 181 183 188 196 210 236 263 281 291 276 115 112 112 112 113 114 109 103 99 101 102 99 97 95 92 91 93 96 96 89 82 81 79 73 70 73 76 78 83 93 92 79
270 271 267 266 271 267 264 267 268 271 280 281 276 281 306 328 334 267 216 208 201 199 201 208 218 226 233 238 216 160 131 121 117 117 114 110 105 101 97 96 98 98 96 95 94 92 92 93 92 88 81 74 71 70 66 61 62 63 60 58 63 64 54
266 264 253 249 265 272 269 275 279 276 273 269 265 264 276 305 351 59 197 201 207 214 209 203 200 189 175 166 152 139 130 125 121 119 116 112 107 104 103 102 99 96 94 93 91 87 84 83 82 80 75 72 68 64 59 56 54 54 52 50 53 53 44
267 261 254 252 259 273 284 291 292 283 267 257 248 238 237 248 51 69 154 174 179 192 189 178 168 159 156 154 150 143 135 131 130 126 122 120 115 109 104 99 94 91 91 89 84 80 76 74 74 72 69 68 66 61 57 54 50 48 46 43 43 44 38
275 252 243 239 253 311 317 307 298 307 293 258 218 194 189 197 110 95 111 128 148 172 177 176 168 162 161 161 156 149 141 137 137 132 128 125 120 110 102 96 92 89 88 85 79 75 72 67 66 64 60 58 59 57 54 51 48 45 41 36 34 31 24
81 126 146 73 3 352 349 344 343 354 358 28 164 164 161 157 154 140 110 74 96 186 184 187 183 173 170 167 161 154 148 144 141 135 131 129 125 116 108 100 95 89 84 80 75 69 64 60 58 56 50 46 46 43 40 38 36 34 31 26 23 20 13
137 136 128 109 85 31 20 351 331 7 44 78 126 158 161 158 165 181 227 307 275 220 194 191 191 182 175 171 166 159 154 151 146 141 137 133 129 122 114 106 99 89 78 70 63 57 51 44 39 39 38 34 30 27 25 23 21 20 18 13 9 6 2
227 212 214 225 236 239 233 238 253 258 132 116 132 170 188 189 198 229 266 278 259 225 199 191 191 187 179 175 171 166 162 159 154 150 147 142 136 130 122 115 107 94 77 52 37 35 31 20 13 13 17 17 15 14 11 9 8 6 3 2 359 353 351
260 263 269 272 273 270 258 248 248 248 240 221 202 208 222 226 232 249 261 253 232 214 202 196 195 191 186 183 179 174 172 170 166 164 162 158 154 150 148 155 164 170 308 332 351 2 3 357 351 352 359 2 2 360 356 356 358 355 352 354 353 348 344
267 270 274 276 276 276 270 259 251 249 249 250 245 236 234 237 240 242 239 230 218 208 200 198 198 196 193 190 187 184 184 185 183 182 182 182 185 189 197 219 242 262 283 308 332 340 341 343 343 345 350 352 351 351 350 347 347 347 346 348 347 341 337